Location: Newark
(49.8969°N, 3.3422°E)
Time: 07:59:33
(UTC+00:00)

Envisat - Pass Details

Date: 12 December 2019
Orbit: 764 x 766 km, 98.1° (Epoch: 28 January)

Event Time Altitude Azimuth Distance (km) Brightness Sun altitude
Rises 16:24:04 0° 130° (SE) 3,226 6.0 -6.1°
Reaches altitude 10° 16:26:38 10° 119° (ESE) 2,304 5.2 -6.5°
Maximum altitude 16:30:53 28° 62° (ENE) 1,426 3.9 -7.1°
Drops below altitude 10° 16:35:08 10° 5° (N) 2,317 5.2 -7.7°
Sets 16:37:44 0° 354° (N) 3,248 6.0 -8.1°
